Location: Praha
(50.0830°N, 14.4670°E)
Time: 22:10:56
(UTC+02:00)

ISS - Pass Details

Date: 11 September 2019
Orbit: 411 x 421 km, 51.6° (Epoch: 19 September)

Event Time Altitude Azimuth Distance (km) Brightness Sun altitude
Exits shadow 03:56:46 43° 74° (ENE) 593 -2.7 -23.2°
Drops below altitude 10° 03:59:12 10° 91° (E) 1,492 -0.3 -22.9°
Sets 04:01:19 0° 94° (E) 2,356 0.7 -22.6°
